This is the latest recevied weather packets stored in our database for station/object KJ5EHN. If no packets are shown the sender has not sent any weather packets the latest 10 day(s).
| Time | Temp. | Humidity | Pressure | Rain* | Wind** | Luminosity | Snow |
|---|---|---|---|---|---|---|---|
| 1777928398 | 27.78° C | 52% | 1007.8 hPa | 0 mm | - | - | - |
| 1777928096 | 27.78° C | 51% | 1007.7 hPa | 0 mm | - | - | - |
| 1777927794 | 27.78° C | 52% | 1007.9 hPa | 0 mm | - | - | - |
| 1777927492 | 27.78° C | 52% | 1008 hPa | 0 mm | - | - | - |
| 1777927191 | 27.78° C | 50% | 1008.2 hPa | 0 mm | - | - | - |
| 1777926889 | 27.22° C | 52% | 1008.2 hPa | 0 mm | - | - | - |
| 1777926584 | 27.78° C | 50% | 1008.5 hPa | 0 mm | - | - | - |
| 1777926281 | 27.78° C | 50% | 1008.2 hPa | 0 mm | - | - | - |
| 1777925978 | 27.78° C | 52% | 1008.6 hPa | 0 mm | - | - | - |
| 1777925675 | 27.22° C | 51% | 1008.5 hPa | 0 mm | - | - | - |
| 1777925373 | 27.78° C | 51% | 1008.7 hPa | 0 mm | - | - | - |
| 1777925069 | 27.22° C | 52% | 1009 hPa | 0 mm | - | - | - |
| 1777924766 | 27.78° C | 51% | 1009 hPa | 0 mm | - | - | - |
| 1777924462 | 27.22° C | 51% | 1009.1 hPa | 0 mm | - | - | - |
| 1777924158 | 27.78° C | 51% | 1009 hPa | 0 mm | - | - | - |
| 1777923854 | 27.78° C | 50% | 1009 hPa | 0 mm | - | - | - |
| 1777923551 | 27.78° C | 50% | 1009.1 hPa | 0 mm | - | - | - |
| 1777923248 | 26.67° C | 51% | 1009.5 hPa | 0 mm | - | - | - |
| 1777922947 | 27.22° C | 51% | 1009.7 hPa | 0 mm | - | - | - |
| 1777922644 | 27.22° C | 51% | 1009.4 hPa | 0 mm | - | - | - |
| 1777922342 | 26.67° C | 49% | 1009.3 hPa | 0 mm | - | - | - |
| 1777922040 | 26.67° C | 50% | 1009.7 hPa | 0 mm | - | - | - |
| 1777921735 | 26.11° C | 51% | 1009.9 hPa | 0 mm | - | - | - |
| 1777921431 | 26.11° C | 50% | 1010 hPa | 0 mm | - | - | - |
| 1777921128 | 26.11° C | 49% | 1010 hPa | 0 mm | - | - | - |
* Rain latest hour (hover to see other rain measurements)
** Current wind speed in m/s (hover to see current wind gust speed)